RH
24 27 28 33 36 37 41 43 45 47 56 68 67 64 71 71 69 48 47 55 43 41 37 37 46 58 58 60 59 60 63 64 57
20 26 29 33 35 37 39 43 47 52 57 64 61 57 66 71 68 65 52 59 55 43 52 38 46 50 58 56 58 61 64 52 61
19 24 29 30 33 35 36 37 40 45 50 59 58 54 56 57 59 64 61 57 61 58 48 54 48 54 53 54 58 60 66 55 60
15 22 27 29 30 32 34 34 38 42 46 53 55 53 56 56 54 54 59 56 58 60 57 56 60 57 55 56 58 60 66 64 56
14 18 23 26 27 30 32 35 36 38 41 43 48 52 59 57 56 56 52 60 57 60 63 59 60 59 59 56 54 58 64 63 53
16 17 20 24 24 28 31 33 36 34 36 36 38 47 48 50 52 53 55 59 58 60 63 63 55 57 61 59 55 58 60 62 60
13 14 20 21 24 26 31 34 41 40 35 32 34 39 42 52 53 53 52 59 63 58 64 64 62 59 59 59 55 53 55 58 60
16 17 19 24 25 29 38 41 43 44 37 38 35 43 42 49 57 57 58 62 64 62 64 63 62 61 59 58 52 42 55 54 55
19 23 20 18 24 27 32 38 44 46 46 41 42 49 47 52 63 65 65 67 69 69 67 66 65 61 60 60 46 60 74 62 51
28 31 32 33 28 25 28 32 40 44 49 44 49 54 56 58 66 69 70 68 72 72 72 67 69 64 61 65 63 75 80 81 50
50 48 46 43 35 34 28 24 26 38 41 54 56 59 62 62 67 69 71 72 73 75 69 70 69 67 68 68 62 82 85 86 61
63 60 59 55 46 41 40 30 29 37 40 49 55 60 64 64 65 68 69 72 74 70 68 68 67 65 70 72 70 88 90 88 61
63 64 62 62 54 46 42 43 27 31 41 48 57 58 61 64 66 69 70 72 75 72 68 65 55 60 64 71 68 90 94 88 54
68 75 75 60 54 51 46 41 29 40 45 48 52 52 54 62 66 71 70 75 73 73 70 64 70 64 64 67 69 70 96 99 66
74 84 78 49 41 38 34 33 38 50 57 55 58 57 58 66 69 57 56 76 74 73 72 76 74 73 64 54 63 90 96 98 94
63 68 85 68 46 42 41 44 43 54 63 66 61 61 66 67 67 65 64 73 75 65 72 59 63 57 55 49 47 56 95 100 98
68 71 70 89 82 79 65 53 51 54 58 66 64 66 68 66 67 68 62 58 58 56 54 56 49 50 49 45 45 46 48 66 75
76 81 75 76 93 90 88 83 80 75 65 64 64 65 63 64 59 66 63 59 60 51 53 53 47 44 44 45 46 46 62 64 55
75 82 84 84 81 86 83 79 78 75 72 72 64 64 57 50 48 54 56 64 62 98 96 99 100 100 74 57 87 100 100 100 100
74 72 79 79 84 84 86 83 81 80 74 70 74 91 71 49 51 56 70 90 87 77 81 100 100 100 100 100 99 100 100 100 100
Wind_Speed
20 21 21 24 25 25 25 26 26 24 23 21 22 21 19 17 17 13 13 13 10 10 9 8 8 11 10 10 9 8 7 7 7
17 20 22 25 25 25 25 25 26 25 23 23 23 23 18 17 17 17 14 13 13 10 9 8 9 11 12 11 11 10 8 7 7
17 18 20 21 23 25 24 25 25 26 24 24 23 22 20 18 19 17 16 13 13 13 12 12 10 11 13 12 12 11 10 8 8
22 18 20 21 23 24 25 24 24 26 25 24 23 23 20 20 19 19 17 16 15 14 13 12 13 12 13 13 12 12 11 10 8
21 19 20 21 22 23 23 25 25 26 26 25 24 21 20 21 19 18 19 17 17 15 15 15 14 13 13 13 13 12 13 13 11
18 19 20 20 19 20 23 25 25 26 25 26 25 22 23 22 21 20 19 18 18 16 16 16 15 14 14 14 14 13 13 13 13
15 19 14 17 18 19 21 22 21 22 25 25 24 24 23 21 22 21 20 18 17 18 16 17 16 15 15 15 15 14 14 14 13
2 6 13 15 17 17 18 19 20 21 22 22 23 22 24 22 20 20 19 18 17 18 17 17 17 16 16 15 15 13 16 15 14
9 9 7 8 14 16 18 21 21 21 21 22 22 21 23 20 19 19 19 18 18 17 17 17 16 17 17 17 13 14 14 14 14
10 9 8 9 11 13 16 20 21 23 23 21 22 20 20 19 19 19 19 19 18 18 18 17 17 17 17 17 17 13 14 15 16
8 8 9 11 11 13 16 18 21 20 21 20 20 20 20 19 19 19 18 18 19 18 17 17 16 17 16 16 15 14 15 15 17
8 10 12 13 14 16 14 16 18 20 20 21 20 21 21 21 21 20 20 19 19 17 16 16 16 16 17 17 16 16 17 15 16
11 11 12 14 17 17 18 17 19 20 22 22 23 22 23 20 20 20 20 19 19 17 15 17 15 17 17 18 17 14 16 17 13
11 12 16 17 17 17 19 17 21 20 21 24 23 20 20 19 19 19 17 16 16 16 16 15 15 15 15 16 17 16 18 20 16
13 15 16 12 9 12 15 18 18 18 20 15 17 17 18 18 18 16 16 17 15 16 15 15 14 15 14 14 15 15 15 20 22
13 15 15 14 5 5 8 14 14 16 13 12 15 15 16 17 18 17 14 16 15 14 14 13 14 13 13 12 12 13 20 18 19
13 14 15 13 12 12 8 7 11 13 14 13 16 16 16 15 15 15 15 13 13 13 14 14 13 13 13 12 12 12 11 12 11
12 12 15 14 12 10 11 12 12 9 9 13 14 15 13 13 12 13 12 9 2 10 11 7 13 11 11 11 12 11 10 8 10
11 13 13 14 16 15 14 14 14 12 9 3 12 12 12 11 10 11 9 9 5 15 13 14 11 10 4 5 8 7 10 7 8
13 14 14 14 13 13 13 15 17 16 12 9 5 5 9 8 7 9 9 7 7 7 6 10 15 14 11 10 8 9 12 13 13
Wind_Direction
198 203 197 198 197 196 195 197 195 198 193 198 196 198 201 201 205 211 214 207 226 215 225 213 203 193 212 212 201 206 193 194 216
200 198 202 199 197 198 196 196 196 196 194 195 199 199 198 200 202 217 213 220 208 224 224 231 221 210 213 213 211 207 195 227 197
219 198 203 200 200 198 198 198 197 197 198 198 196 199 200 203 205 207 220 215 221 221 224 222 231 211 215 212 209 207 204 211 203
216 201 201 203 201 202 200 197 195 196 198 198 198 198 200 203 205 208 210 218 217 219 225 218 220 213 213 210 209 205 204 225 233
217 201 203 204 202 200 199 198 196 195 196 196 198 195 196 200 202 206 208 213 217 213 216 219 220 212 213 216 217 211 209 213 221
211 217 208 204 200 198 202 199 200 198 197 197 194 194 195 200 203 203 206 207 213 209 212 217 219 213 214 217 219 215 215 216 221
238 217 214 217 212 205 200 204 199 201 199 199 195 193 197 196 198 202 205 204 204 207 208 213 216 214 214 219 223 221 221 218 225
201 226 221 209 215 208 200 200 199 198 204 200 198 191 199 197 197 199 200 200 200 204 205 210 212 209 214 217 222 222 220 224 226
251 250 222 228 219 217 209 205 202 195 200 198 199 194 199 194 192 194 196 196 197 198 205 209 209 211 211 215 222 215 211 223 227
263 263 261 254 240 228 218 209 203 201 197 193 195 195 194 194 191 194 194 194 194 197 202 205 209 212 212 214 220 214 201 201 231
284 281 277 268 255 243 238 220 207 204 195 195 193 193 193 193 191 194 193 194 196 196 200 204 205 210 214 217 218 204 198 195 223
298 292 288 276 263 256 249 239 215 191 199 193 192 193 195 193 190 192 192 196 195 197 201 203 207 210 212 216 224 197 195 188 225
330 308 287 277 268 251 234 223 219 195 194 193 197 194 194 191 189 191 194 191 192 194 199 205 208 211 212 216 223 199 194 193 228
338 319 298 275 261 241 231 214 210 193 191 198 196 194 191 190 191 190 192 192 191 190 197 202 208 211 214 217 215 223 187 190 222
357 337 324 302 264 214 210 195 196 185 196 187 185 191 188 187 189 191 188 193 193 196 197 204 201 211 215 215 222 215 190 193 209
11 357 348 346 6 167 177 182 182 178 183 173 185 190 189 187 188 189 186 190 192 194 198 207 209 207 214 219 208 219 205 189 197
17 13 6 356 38 46 64 138 168 184 175 175 177 183 189 187 191 190 194 189 195 203 201 205 211 212 213 214 215 212 204 201 199
22 11 13 16 17 58 68 66 65 67 159 181 178 183 184 182 189 185 195 195 244 217 211 224 212 212 212 209 212 210 203 206 195
22 20 12 21 21 21 47 51 56 59 51 129 174 192 174 169 183 166 193 168 152 74 37 355 20 359 319 140 55 79 133 130 99
27 25 14 25 26 20 25 43 38 26 34 48 64 157 117 119 177 126 109 92 76 30 49 42 25 10 21 60 120 106 112 106 93